Location: Newark
(35.0033°N, 81.0878°W)
Time: 04:31:30
(UTC+00:00)

Envisat - Visible Passes

Search period start: 04 August 2021 00:00
Search period end: 14 August 2021 00:00
Orbit: 764 x 766 km, 98.2° (Epoch: 03 August)

Date Brightness Start Highest point End Pass type
(mag) Time Alt. Az. Time Alt. Az. Time Alt. Az.
04 Aug 5.6 09:38:38 10° NE 09:42:18 20° E 09:45:56 10° SE visible
06 Aug 4.7 10:03:09 10° NNE 10:07:47 36° E 10:12:26 10° SSE visible
07 Aug 5.8 09:27:49 10° ENE 09:30:43 15° E 09:33:35 10° SE visible
09 Aug 5.1 09:51:56 10° NE 09:56:15 28° E 10:00:33 10° SSE visible
10 Aug 6.0 09:17:35 10° ENE 09:19:07 11° E 09:20:38 10° ESE visible
12 Aug 5.5 09:40:50 10° NE 09:44:41 21° E 09:48:31 10° SE visible
